Wind_Speed
16 15 13 14 14 12 12 11 12 12 12 10 8 6 5 6 6 7 11 10 9 10 11 8 8 12 22 25 29 30 30 31 33 31 34 34 36 39 45 50 53 55 55
23 20 19 19 19 19 15 14 15 15 14 10 7 5 4 7 10 13 13 12 12 13 17 17 16 19 20 20 25 34 34 38 42 47 42 40 41 45 42 44 48 51 54
28 26 26 26 22 22 20 16 16 15 13 11 9 8 9 10 12 13 10 10 12 14 17 19 21 20 20 23 26 31 35 35 39 40 44 47 49 48 51 50 50 50 52
26 25 28 29 30 25 21 18 14 12 13 14 14 14 12 11 10 8 5 3 9 15 19 18 20 28 37 41 39 36 39 48 43 46 48 49 59 59 61 59 60 60 60
28 26 26 29 22 18 17 13 11 11 14 14 16 18 14 12 14 12 5 2 11 33 31 32 35 37 46 38 39 42 46 48 50 52 53 53 60 65 58 67 63 66 67
23 21 24 25 21 18 15 13 11 11 12 16 19 19 18 22 27 22 14 11 28 31 32 38 42 44 39 48 49 48 48 48 49 58 60 63 64 66 67 67 73 63 60
23 22 21 22 20 18 17 12 11 14 15 16 18 23 25 30 36 23 14 24 31 32 42 44 45 41 44 44 45 48 50 53 57 63 66 68 74 75 72 71 67 64 65
21 19 16 15 18 22 22 19 28 26 21 20 19 26 30 35 40 29 17 32 47 51 49 53 51 47 50 50 55 59 62 65 69 71 73 77 73 76 75 71 75 77 73
28 31 23 25 20 21 27 30 30 31 29 24 20 18 25 40 40 40 31 43 49 49 45 53 54 58 57 57 56 61 67 72 73 74 78 80 82 86 83 86 83 78 70
33 38 17 36 30 25 23 28 30 27 24 30 25 27 37 51 47 48 47 54 55 50 48 49 51 58 60 61 64 65 70 76 79 81 83 84 83 82 82 81 71 67 65
48 27 19 61 53 40 37 38 33 35 27 37 29 29 33 44 59 56 52 53 55 57 58 58 64 64 61 62 65 69 71 73 76 74 72 72 77 75 69 61 61 63 65
52 49 47 56 58 50 47 47 47 44 36 34 29 33 35 39 47 57 57 54 55 55 55 61 67 68 62 61 61 62 65 66 68 72 79 69 62 62 62 63 66 66 67
54 49 45 51 58 43 50 52 53 45 37 38 42 37 34 39 42 54 56 57 56 58 58 60 58 60 64 63 61 66 73 75 72 73 69 63 62 64 64 64 65 68 64
56 55 56 55 55 58 57 57 54 46 50 51 57 35 26 27 34 42 52 55 56 59 62 63 57 56 61 67 66 71 77 78 73 73 65 63 64 67 66 67 66 59 55
59 58 58 66 64 66 65 60 56 57 57 59 47 34 33 34 35 36 40 44 51 53 58 61 63 62 63 67 66 69 72 72 72 67 63 61 61 66 66 62 57 55 52
60 59 61 67 69 59 60 64 65 61 64 59 43 39 40 47 45 40 45 43 45 55 59 60 63 67 67 67 68 67 67 65 63 59 60 61 63 64 59 56 54 56 58
65 60 50 54 59 63 67 71 72 68 65 60 65 50 55 55 49 51 45 53 58 60 58 64 67 65 63 63 63 64 60 60 56 61 64 61 58 57 55 54 56 58 59
64 65 52 52 54 59 60 58 60 63 56 55 57 62 66 60 60 59 58 62 62 61 62 60 62 62 62 61 60 57 57 55 57 60 65 60 56 52 53 56 58 61 65
67 69 70 66 55 57 62 64 61 63 64 68 66 69 68 69 70 65 65 63 57 60 61 62 65 64 62 55 50 51 51 53 54 54 53 50 50 53 56 58 63 66 72
59 58 62 68 66 65 65 69 68 65 66 69 72 71 71 70 72 75 67 61 66 65 63 61 60 54 46 43 46 47 48 49 45 48 45 46 50 54 57 60 65 73 76
68 69 70 69 72 77 75 73 78 81 80 73 76 76 75 78 82 74 74 70 62 62 58 53 45 39 41 46 46 34 35 42 47 43 43 47 53 56 61 64 70 75 70
81 80 79 84 87 86 85 89 89 92 91 87 82 84 80 74 75 75 68 59 61 57 50 44 43 41 42 37 29 23 35 41 43 42 44 51 56 60 64 69 71 62 46
46 66 79 87 93 98 98 98 89 83 80 80 83 79 77 76 75 64 52 53 53 48 43 41 41 38 24 19 21 27 33 38 39 42 48 52 58 63 68 64 51 38 22
24 26 39 51 58 61 63 64 65 68 70 62 57 55 55 50 48 44 44 44 42 40 39 39 32 21 19 23 37 34 36 36 39 45 48 54 61 65 56 41 30 17 12
26 22 21 23 29 36 41 43 44 43 43 40 36 36 37 39 40 36 33 31 29 30 27 19 14 14 18 30 39 41 38 35 40 45 50 56 59 51 35 24 15 10 12
25 25 24 21 22 25 24 23 22 22 24 28 30 32 33 30 30 31 28 24 24 22 17 17 21 21 26 29 36 33 32 36 42 44 49 52 49 35 24 16 13 11 14
Wind_Direction
259 253 259 254 269 280 273 266 276 273 273 272 279 282 280 257 236 239 244 245 242 248 255 264 265 246 240 238 240 250 261 266 269 273 277 280 287 293 299 301 301 302 297
242 244 258 253 265 275 270 265 269 267 263 266 263 267 253 226 217 220 230 248 258 258 256 266 270 272 269 265 259 260 272 279 280 279 278 285 292 295 305 312 310 307 305
255 255 255 259 267 255 260 260 267 260 255 267 266 246 229 218 212 208 207 233 262 267 274 275 273 278 278 280 282 282 284 287 283 283 280 288 290 291 303 311 314 309 303
256 255 257 263 265 250 249 246 255 259 255 248 249 246 234 220 201 152 163 295 313 305 296 282 278 296 296 293 295 296 290 289 299 295 288 289 304 306 303 308 306 306 310
278 277 275 269 265 255 253 251 262 269 261 255 251 247 231 196 155 122 180 344 315 301 286 279 287 280 302 301 289 295 297 295 302 299 299 303 311 307 305 307 304 306 307
271 276 283 274 270 266 263 262 267 273 272 261 252 248 213 193 172 200 184 250 254 255 261 278 283 285 291 293 299 297 297 302 300 304 305 306 304 306 304 303 305 304 298
253 248 260 245 251 251 252 263 291 293 293 273 251 240 216 206 204 208 224 273 266 270 274 267 293 293 302 296 292 289 287 291 296 300 295 295 301 306 309 309 305 298 299
237 248 252 261 260 249 253 265 297 293 283 274 268 243 224 212 224 204 240 283 287 279 276 278 283 291 299 295 292 287 285 290 294 297 298 300 304 306 311 307 307 308 303
279 269 263 259 275 275 264 272 287 290 285 272 266 250 293 220 225 232 228 244 276 278 277 267 282 292 297 292 296 295 287 292 296 298 302 303 301 303 307 307 306 306 302
265 279 314 285 286 277 283 278 277 292 302 288 265 242 232 222 229 246 245 254 266 281 286 272 295 291 298 290 294 293 292 295 298 300 304 305 304 304 305 304 301 305 305
251 243 237 240 278 279 286 293 279 283 279 268 277 259 246 230 232 247 257 254 266 274 275 277 286 292 290 292 293 294 296 300 300 304 309 309 309 307 304 303 307 308 306
244 249 240 238 258 272 278 281 277 282 290 305 296 280 262 252 250 248 262 269 276 284 278 275 283 290 292 292 295 300 306 308 310 309 309 310 311 308 306 307 308 307 305
232 241 243 260 266 260 266 273 270 281 280 298 302 298 283 263 261 259 270 281 283 284 279 281 287 292 293 299 301 300 300 306 310 309 308 309 306 307 308 309 307 306 305
228 233 240 245 250 253 261 272 273 275 282 293 300 298 299 300 285 272 266 278 282 283 284 285 291 297 296 299 297 297 301 304 306 306 305 305 304 304 307 307 307 304 302
222 230 234 243 247 249 265 267 270 276 282 287 295 301 304 326 317 311 302 291 287 293 290 288 291 291 296 301 302 303 306 306 305 305 302 302 303 305 305 304 302 302 302
226 241 240 249 255 256 258 264 272 279 286 294 285 291 298 308 309 313 309 299 295 299 293 287 292 293 294 299 301 302 304 304 302 304 303 301 303 304 302 301 303 304 303
230 239 250 252 254 257 261 265 270 279 287 289 291 286 299 304 300 298 298 293 295 298 298 298 296 297 297 301 299 297 299 297 295 302 306 306 303 302 302 305 305 306 305
230 236 246 251 261 266 270 279 281 287 288 284 285 288 294 296 301 298 304 306 305 304 303 299 296 294 297 297 298 297 295 297 296 300 302 301 303 305 305 307 307 308 308
235 243 249 257 261 268 276 281 281 282 282 286 287 291 293 292 298 300 301 302 304 303 296 296 294 294 292 294 296 294 295 297 297 295 297 300 306 307 307 308 310 310 308
239 250 256 257 262 270 273 273 278 278 279 284 289 291 292 294 295 296 300 298 300 301 296 290 290 290 292 289 295 300 299 298 292 294 300 305 307 308 310 311 311 312 315
238 243 247 251 256 259 263 269 274 278 279 281 285 289 292 291 293 297 298 298 295 293 289 292 288 289 288 290 296 302 307 302 302 306 308 309 313 311 312 310 313 316 317
244 247 254 252 253 260 262 268 271 275 278 279 282 286 287 287 292 296 295 289 286 284 282 284 285 290 292 292 289 295 293 289 292 304 310 313 313 312 312 314 314 314 316
260 257 257 255 256 260 261 262 269 272 278 279 280 281 284 287 291 292 285 282 281 276 278 280 286 288 279 291 305 292 281 286 300 311 312 314 316 316 316 315 313 313 315
293 278 260 255 256 255 257 261 265 270 276 278 279 279 285 287 282 284 289 285 276 270 274 283 277 265 275 266 282 303 296 300 311 310 316 316 318 318 318 315 312 307 304
312 305 289 269 262 261 263 264 265 267 270 273 277 279 277 280 284 288 291 284 278 275 277 270 241 251 262 254 256 282 296 307 309 315 318 320 320 323 321 320 309 282 290
309 312 302 299 290 284 276 270 268 268 270 274 276 279 283 286 290 291 290 287 282 282 274 251 238 234 248 254 264 286 299 309 315 319 323 327 330 328 332 328 302 282 302
Height
10988 10989 10990 10990 10990 10989 10988 10987 10986 10986 10986 10987 10989 10989 10990 10990 10990 10990 10991 10992 10993 10994 10994 10994 10995 10995 10996 10997 10996 10995 10994 10992 10989 10987 10985 10984 10982 10980 10978 10975 10971 10966 10962
10982 10984 10984 10985 10985 10986 10983 10981 10981 10982 10982 10983 10984 10985 10986 10985 10984 10984 10986 10990 10991 10992 10993 10993 10993 10993 10992 10991 10991 10992 10990 10988 10986 10984 10981 10979 10977 10975 10970 10965 10961 10956 10951
10977 10979 10980 10980 10981 10980 10978 10977 10977 10977 10977 10977 10978 10979 10980 10979 10979 10982 10986 10988 10990 10990 10990 10989 10989 10989 10988 10988 10986 10984 10983 10981 10978 10976 10974 10971 10968 10963 10960 10954 10948 10944 10939
10973 10974 10974 10975 10975 10975 10974 10973 10973 10973 10972 10972 10972 10972 10973 10975 10977 10980 10985 10988 10990 10991 10988 10984 10982 10982 10981 10978 10976 10974 10973 10970 10967 10963 10961 10958 10954 10950 10946 10940 10937 10931 10925
10972 10974 10974 10973 10972 10972 10971 10971 10972 10970 10969 10968 10967 10967 10969 10972 10974 10976 10977 10980 10985 10986 10980 10977 10974 10972 10970 10966 10965 10961 10957 10955 10954 10950 10946 10941 10936 10934 10929 10924 10918 10914 10907
10962 10962 10963 10966 10969 10970 10970 10968 10967 10967 10966 10966 10965 10964 10966 10967 10967 10968 10972 10971 10963 10956 10963 10962 10960 10959 10956 10953 10950 10948 10944 10940 10936 10932 10930 10927 10925 10918 10912 10909 10903 10895 10888
10945 10945 10946 10949 10954 10958 10962 10964 10964 10964 10963 10962 10961 10961 10961 10959 10958 10964 10968 10963 10960 10959 10956 10949 10946 10944 10945 10943 10940 10938 10933 10928 10924 10919 10919 10914 10908 10903 10897 10889 10882 10875 10868
10939 10941 10944 10948 10948 10948 10953 10956 10959 10959 10958 10956 10958 10957 10957 10953 10952 10958 10963 10965 10950 10940 10941 10937 10933 10934 10934 10932 10928 10925 10918 10914 10912 10907 10903 10897 10891 10884 10879 10870 10863 10856 10847
10938 10938 10940 10941 10943 10943 10945 10947 10951 10951 10952 10951 10952 10958 10968 10957 10951 10949 10946 10942 10932 10925 10925 10927 10922 10922 10920 10920 10914 10907 10903 10898 10895 10891 10886 10879 10872 10865 10857 10850 10841 10833 10826
10926 10931 10946 10942 10937 10938 10939 10940 10944 10950 10953 10954 10945 10947 10941 10946 10941 10935 10928 10923 10919 10914 10915 10914 10913 10910 10906 10903 10900 10895 10889 10883 10878 10874 10868 10861 10853 10846 10837 10829 10822 10815 10810
10918 10938 10952 10943 10934 10930 10930 10932 10934 10943 10952 10946 10937 10932 10930 10930 10923 10917 10916 10916 10911 10906 10904 10902 10899 10897 10895 10889 10884 10878 10872 10868 10863 10858 10850 10842 10834 10825 10817 10810 10805 10798 10793
10896 10909 10924 10918 10917 10921 10920 10920 10924 10926 10930 10927 10924 10920 10917 10914 10910 10909 10904 10902 10899 10894 10894 10890 10886 10882 10877 10873 10867 10863 10857 10851 10846 10840 10833 10824 10816 10809 10803 10795 10788 10782 10776
10880 10888 10897 10902 10903 10909 10906 10909 10913 10915 10914 10914 10912 10909 10906 10904 10899 10897 10892 10889 10888 10883 10880 10876 10874 10870 10863 10859 10853 10848 10841 10837 10830 10823 10815 10808 10802 10796 10789 10781 10774 10767 10760
10873 10878 10885 10884 10888 10889 10892 10900 10903 10903 10901 10901 10901 10899 10897 10893 10890 10887 10884 10880 10877 10874 10871 10869 10862 10857 10849 10843 10839 10832 10828 10823 10815 10808 10800 10794 10790 10783 10774 10767 10761 10753 10746
10868 10872 10874 10878 10880 10883 10886 10891 10891 10889 10889 10891 10891 10886 10883 10880 10879 10877 10874 10871 10868 10863 10859 10855 10850 10845 10836 10829 10826 10819 10813 10806 10801 10793 10786 10781 10776 10769 10760 10753 10744 10738 10735
10864 10866 10868 10869 10870 10871 10874 10876 10875 10876 10875 10877 10878 10873 10871 10869 10866 10864 10863 10862 10858 10856 10849 10843 10836 10829 10823 10817 10811 10804 10799 10792 10787 10782 10774 10768 10762 10754 10746 10739 10733 10725 10718
10849 10851 10851 10854 10857 10859 10858 10858 10858 10861 10861 10861 10861 10858 10857 10856 10854 10854 10853 10851 10846 10839 10832 10825 10818 10814 10809 10802 10797 10792 10785 10778 10775 10768 10762 10756 10748 10741 10733 10726 10719 10712 10704
10837 10837 10838 10840 10842 10842 10842 10842 10845 10846 10844 10843 10843 10843 10843 10841 10839 10836 10834 10829 10825 10821 10815 10810 10803 10799 10795 10789 10784 10778 10772 10767 10762 10755 10749 10742 10735 10728 10721 10714 10705 10697 10686
10824 10824 10824 10825 10826 10827 10830 10829 10830 10830 10830 10828 10828 10826 10826 10824 10823 10820 10818 10814 10808 10804 10800 10793 10786 10782 10780 10776 10771 10764 10759 10755 10749 10743 10736 10730 10724 10717 10709 10701 10691 10680 10670
10811 10811 10812 10814 10814 10815 10814 10815 10815 10817 10815 10814 10810 10808 10808 10804 10804 10803 10802 10798 10794 10790 10783 10778 10771 10768 10766 10763 10759 10755 10749 10743 10737 10732 10726 10721 10714 10706 10698 10689 10677 10664 10651
10795 10797 10797 10800 10800 10801 10801 10801 10800 10799 10798 10798 10796 10794 10792 10789 10788 10785 10783 10780 10776 10773 10767 10762 10759 10757 10755 10752 10748 10745 10740 10733 10729 10723 10718 10712 10703 10695 10685 10675 10663 10650 10638
10781 10781 10783 10784 10784 10784 10785 10785 10783 10783 10781 10780 10783 10774 10780 10772 10771 10767 10765 10762 10759 10755 10752 10750 10747 10746 10744 10740 10738 10736 10732 10727 10721 10716 10710 10702 10693 10683 10672 10660 10649 10638 10630
10763 10762 10763 10765 10765 10765 10766 10766 10764 10765 10764 10761 10764 10762 10762 10758 10752 10750 10747 10745 10742 10740 10739 10737 10735 10734 10733 10732 10730 10728 10725 10719 10714 10708 10700 10692 10681 10669 10657 10645 10635 10629 10625
10749 10746 10743 10743 10743 10744 10744 10746 10748 10747 10747 10747 10746 10748 10743 10741 10737 10737 10732 10729 10727 10727 10725 10726 10724 10725 10724 10723 10721 10721 10717 10712 10706 10699 10691 10681 10669 10656 10643 10633 10627 10624 10623
10740 10736 10734 10732 10731 10731 10732 10732 10733 10732 10734 10734 10733 10734 10733 10730 10727 10724 10722 10717 10716 10714 10716 10716 10717 10717 10716 10716 10716 10715 10712 10705 10697 10690 10682 10671 10658 10644 10634 10627 10624 10623 10621
10733 10729 10727 10725 10724 10722 10722 10721 10721 10723 10725 10726 10725 10723 10721 10720 10717 10714 10712 10710 10708 10709 10709 10710 10711 10710 10710 10711 10711 10710 10704 10698 10690 10683 10673 10661 10648 10638 10631 10627 10624 10622 10620